This is the latest recevied weather packets stored in our database for station/object VR2R-13. If no packets are shown the sender has not sent any weather packets the latest 1 day(s).
| Time | Temp. | Humidity | Pressure | Rain* | Wind** | Luminosity | Snow |
|---|---|---|---|---|---|---|---|
| 1778008965 | 16.67° C | 97% | 913.2 hPa | 0 mm | 2.24 m/s, 80° | - | - |
| 1778008667 | 16.67° C | 98% | 913.2 hPa | 0 mm | 1.79 m/s, 61° | - | - |
| 1778008665 | 16.67° C | 98% | 913.2 hPa | 0 mm | 1.79 m/s, 70° | - | - |
| 1778008365 | 16.67° C | 98% | 913.2 hPa | 0 mm | 1.79 m/s, 81° | - | - |
| 1778008307 | 16.67° C | 98% | 913.3 hPa | 0 mm | 1.79 m/s, 67° | - | - |
| 1778008067 | 16.11° C | 97% | 913.2 hPa | 0 mm | 1.79 m/s, 73° | - | - |
| 1778007766 | 16.11° C | 97% | 913.2 hPa | 0 mm | 1.79 m/s, 32° | - | - |
| 1778007587 | 16.11° C | 98% | 913.2 hPa | 0 mm | 2.68 m/s, 77° | - | - |
| 1778007465 | 16.11° C | 97% | 913.2 hPa | 0 mm | 1.34 m/s, 71° | - | - |
| 1778007226 | 16.11° C | 97% | 913.1 hPa | 0 mm | 1.79 m/s, 73° | - | - |
| 1778007165 | 16.11° C | 97% | 913.1 hPa | 0 mm | 1.79 m/s, 50° | - | - |
| 1778006867 | 16.11° C | 97% | 913.1 hPa | 0 mm | 2.68 m/s, 75° | - | - |
| 1778006865 | 16.11° C | 97% | 913.1 hPa | 0 mm | 2.68 m/s, 77° | - | - |
| 1778006565 | 16.11° C | 97% | 913.2 hPa | 0 mm | 2.68 m/s, 70° | - | - |
| 1778006506 | 16.11° C | 97% | 913.2 hPa | 0 mm | 3.13 m/s, 86° | - | - |
| 1778006265 | 16.11° C | 97% | 913.2 hPa | 0 mm | 2.68 m/s, 92° | - | - |
| 1778006146 | 16.11° C | 97% | 913.2 hPa | 0 mm | 2.68 m/s, 88° | - | - |
| 1778005965 | 16.11° C | 97% | 913.3 hPa | 0 mm | 2.68 m/s, 70° | - | - |
| 1778005786 | 16.11° C | 97% | 913.3 hPa | 0 mm | 2.24 m/s, 68° | - | - |
| 1778005665 | 16.11° C | 97% | 913.3 hPa | 0 mm | 1.79 m/s, 72° | - | - |
| 1778005426 | 16.11° C | 97% | 913.3 hPa | 0 mm | 2.24 m/s, 69° | - | - |
| 1778005067 | 16.67° C | 97% | 913.3 hPa | 0 mm | 1.34 m/s, 74° | - | - |
| 1778005065 | 16.67° C | 97% | 913.3 hPa | 0 mm | 1.34 m/s, 79° | - | - |
| 1778004765 | 16.11° C | 98% | 913.3 hPa | 0 mm | 1.79 m/s, 70° | - | - |
| 1778004706 | 16.11° C | 98% | 913.4 hPa | 0 mm | 1.79 m/s, 68° | - | - |
* Rain latest hour (hover to see other rain measurements)
** Current wind speed in m/s (hover to see current wind gust speed)